Theta_e
333 333 333 333 333 333 333 333 333 333 332 332 333 332 330 324 321 321 321 322 321 318 320 328 331 330 330 331 331 332 333 334 334 332 332 332 332 332 332 331 331 331 329 326 324 324 324 324 324 324 323 323 323 322 323 324 323 322 324 324 321 321 321 317 314 312 310 309 308 308 307 307 306 306 307 311 311 312 313 312 312 312 316 323 325
334 334 334 334 334 334 334 334 334 334 334 334 334 334 334 331 326 323 322 323 324 322 322 327 330 328 329 331 332 333 334 335 334 333 333 332 331 332 332 332 331 331 330 327 325 324 324 324 324 324 324 323 322 322 324 326 324 323 324 324 320 318 318 316 313 312 310 309 308 307 307 306 306 306 306 309 311 312 313 312 313 312 315 322 324
335 335 335 335 335 334 334 334 334 334 334 334 334 334 334 334 333 329 326 323 324 325 325 326 327 326 327 328 329 332 334 335 335 334 333 333 332 331 332 331 331 331 330 328 326 324 324 324 324 325 324 324 322 322 325 327 325 323 323 323 320 318 316 315 313 313 310 308 308 307 307 306 306 306 306 308 311 312 313 312 313 312 313 319 322
335 335 335 335 334 333 333 333 333 334 334 333 334 334 333 333 334 334 332 328 324 323 324 326 325 325 325 325 326 329 334 334 335 334 333 333 332 332 332 331 332 331 331 329 326 325 325 325 325 324 323 323 322 322 325 325 325 324 323 321 320 318 315 314 315 312 310 310 309 307 306 306 306 306 306 308 311 313 313 312 312 311 312 317 319
335 335 334 334 333 333 333 333 333 333 333 333 333 333 333 333 333 333 333 332 329 325 324 324 324 324 325 325 325 328 333 334 334 335 334 334 333 332 332 331 331 331 331 330 326 325 324 324 325 324 323 321 320 323 325 324 323 323 322 321 319 317 315 314 315 313 311 312 310 307 306 307 307 306 307 309 312 314 314 312 311 311 312 314 316
335 334 334 333 333 333 333 332 332 332 332 332 332 332 333 333 333 333 333 333 332 330 329 327 325 324 323 324 324 325 330 333 333 333 333 333 332 332 332 332 332 331 331 330 328 326 325 324 325 324 323 320 318 322 324 322 322 321 320 321 319 317 316 316 316 314 313 310 308 307 306 307 307 307 310 312 314 315 314 312 311 310 312 313 314
334 334 334 333 333 333 333 332 332 331 332 331 332 332 332 332 332 332 333 333 333 332 332 331 330 328 325 325 325 325 328 331 332 332 332 331 330 331 331 331 331 331 331 330 328 327 325 323 324 324 323 320 317 319 322 321 320 319 318 320 319 317 317 316 316 314 311 309 307 306 307 308 308 310 312 313 314 314 313 312 311 310 311 312 313
334 334 333 333 332 332 332 332 332 332 331 332 332 331 331 332 331 332 332 333 333 333 333 332 332 331 329 328 329 329 329 331 332 332 331 328 327 329 330 331 331 331 331 330 329 328 325 324 323 324 323 321 318 316 319 320 320 319 317 318 318 317 317 315 312 313 313 311 307 306 308 309 310 312 314 314 314 315 314 314 313 312 311 310 310
334 334 333 332 332 332 332 332 332 332 332 332 332 332 332 331 331 332 332 332 333 333 333 333 333 332 331 330 331 331 331 331 331 331 331 327 326 328 330 331 331 331 331 330 330 328 327 325 323 323 324 323 318 314 316 318 319 319 317 316 316 317 317 313 311 314 314 310 307 308 310 311 313 314 314 315 316 316 316 316 315 314 314 312 310
334 333 333 332 332 332 332 332 332 332 332 332 331 331 332 331 331 331 332 332 332 332 332 333 333 333 332 332 332 331 331 331 331 331 331 329 328 330 330 330 331 331 331 331 330 329 328 327 323 322 323 323 318 314 314 316 317 319 317 315 316 317 316 314 315 316 313 309 311 312 312 316 317 316 316 317 317 317 317 317 317 316 316 315 314
334 333 332 332 332 332 331 331 330 331 331 331 331 331 331 331 331 331 331 330 330 331 331 331 331 331 332 332 332 332 331 331 331 331 331 330 331 331 330 330 331 331 330 330 330 329 328 328 325 322 323 323 319 316 316 316 316 319 318 315 317 318 316 317 319 316 313 315 318 316 316 320 320 318 318 318 318 318 319 319 319 319 319 319 319
333 333 332 332 332 332 332 331 329 328 329 329 330 330 330 330 330 330 330 330 330 329 330 330 330 330 330 330 331 331 331 331 331 331 331 331 331 332 331 330 330 330 331 331 330 330 329 329 327 324 323 323 320 319 319 319 317 318 319 316 318 319 316 319 320 316 316 319 320 318 319 321 320 319 319 320 320 320 320 321 321 321 321 321 321
333 333 333 333 332 332 332 332 331 330 330 330 330 330 330 330 330 330 330 329 329 329 329 330 330 330 329 329 330 330 330 330 330 330 330 331 331 332 332 331 331 330 330 331 331 330 329 329 329 326 324 323 322 321 320 322 319 317 318 317 318 318 316 320 320 317 319 320 320 319 320 320 319 320 320 321 322 322 321 321 321 321 321 322 322
334 334 333 333 333 333 332 332 332 332 332 331 331 331 331 331 331 330 330 330 329 329 329 329 329 329 329 329 330 330 329 329 329 330 330 330 331 330 330 331 330 330 330 331 331 330 330 329 329 327 326 325 324 322 322 323 321 319 318 317 318 316 317 320 320 319 320 320 320 320 320 320 320 321 321 321 322 321 321 321 320 321 321 321 321
333 333 333 332 332 332 332 331 331 331 331 331 331 331 331 331 332 332 331 331 331 330 330 330 329 329 330 330 330 330 329 329 329 329 329 330 330 329 330 330 330 330 330 330 330 330 330 330 329 328 327 327 326 325 324 324 323 322 319 318 318 316 317 319 319 320 320 320 320 320 320 321 321 322 322 322 322 321 320 319 319 320 321 320 321
332 331 331 331 331 331 330 329 328 329 329 329 329 329 330 330 331 331 332 331 331 331 331 331 330 330 330 331 331 330 330 329 329 328 329 329 329 329 329 330 330 330 330 330 330 330 330 330 330 329 328 328 327 327 326 325 324 323 321 319 317 316 317 317 318 322 321 320 320 320 321 322 322 323 322 322 321 320 320 319 318 319 319 319 319
330 330 329 329 329 328 328 327 328 328 328 328 328 328 328 328 329 330 331 331 331 331 332 332 331 330 330 330 330 330 330 329 329 328 328 328 329 329 329 330 329 329 329 330 330 330 330 330 330 329 329 328 328 328 327 326 325 324 322 320 317 317 317 315 320 325 322 319 320 320 321 322 323 323 323 322 319 318 320 319 317 317 317 314 313
327 327 327 326 326 326 326 327 327 327 327 326 325 325 325 325 325 326 328 330 331 332 331 331 331 330 330 330 329 329 329 329 329 329 329 328 328 328 328 329 329 329 328 328 330 331 330 330 330 330 329 329 329 329 328 327 326 325 324 320 317 317 316 316 323 326 322 320 320 321 322 322 323 323 323 322 318 316 317 319 318 315 312 308 306
324 324 323 323 323 324 325 326 327 326 324 323 322 322 322 322 322 323 324 326 328 330 331 330 331 331 330 330 329 329 329 329 329 329 329 329 328 328 328 328 329 329 328 327 328 330 330 330 330 330 329 329 329 329 328 328 327 326 324 321 317 315 314 318 324 325 324 321 320 321 322 322 323 323 323 322 319 315 314 318 317 311 307 304 303
322 322 322 322 323 324 325 326 325 323 322 322 322 322 322 322 322 322 323 324 325 328 330 330 331 331 330 330 329 329 330 329 329 328 328 329 329 328 328 327 328 329 328 327 328 330 331 330 330 330 330 329 329 329 328 328 328 326 325 322 317 314 313 319 324 325 324 323 321 321 322 322 323 322 323 323 321 316 311 312 312 308 305 304 303
322 322 323 324 325 326 326 325 323 322 322 322 322 322 322 323 323 322 323 325 325 326 328 329 331 331 331 331 330 329 329 330 329 329 328 328 329 329 328 328 327 327 328 327 327 329 330 330 330 330 330 330 329 329 329 328 327 327 326 324 319 314 312 318 324 325 324 323 322 322 322 323 323 323 323 322 322 318 312 308 307 306 305 303 302
322 323 324 325 326 325 324 323 322 322 321 322 322 322 322 323 323 323 325 327 326 326 326 327 328 330 330 331 331 330 331 330 330 329 329 329 329 329 330 329 327 327 327 327 326 327 330 331 330 330 331 329 329 329 329 329 328 327 327 324 320 314 311 316 322 324 324 322 322 323 323 323 323 324 323 323 322 316 311 308 306 306 306 302 302
323 323 324 325 325 324 323 322 322 322 322 322 323 323 323 323 323 324 325 326 327 327 326 325 326 328 328 329 330 331 332 331 330 329 329 330 330 330 330 329 328 327 327 327 326 326 329 330 330 330 330 330 329 329 329 329 328 327 327 325 322 315 311 315 320 323 324 322 322 324 325 324 324 324 323 323 320 312 309 309 305 306 305 302 302
323 324 325 325 324 323 322 322 322 322 322 322 323 324 324 323 323 324 325 326 327 327 326 325 325 325 327 327 328 329 330 330 330 329 330 330 330 331 330 330 329 329 328 328 327 327 328 330 330 330 330 330 330 329 330 329 328 328 327 326 323 316 311 313 318 322 323 323 322 324 325 324 324 324 324 324 318 309 307 308 306 307 305 301 302
323 324 324 324 323 322 322 322 322 322 322 323 324 325 325 325 325 325 325 326 327 328 327 326 325 326 326 326 327 328 328 329 329 329 330 329 330 331 331 331 330 330 329 329 328 328 328 330 330 330 330 330 330 330 330 329 329 328 327 327 325 319 312 311 316 321 323 322 322 323 325 324 324 325 325 324 318 308 306 307 307 307 305 301 301
325 324 324 323 322 322 322 322 322 322 322 323 324 324 325 326 325 325 325 325 326 327 327 327 327 327 327 327 327 327 328 328 328 328 328 329 330 330 330 330 330 330 330 328 328 329 329 329 330 330 330 330 330 330 330 329 329 328 328 327 326 323 317 312 313 320 322 321 322 323 324 324 325 325 325 324 319 310 306 307 307 306 304 301 301
325 324 323 323 322 322 322 322 322 322 322 323 323 324 325 326 326 326 326 326 326 326 326 326 327 327 327 327 327 327 327 328 328 328 328 328 329 329 329 329 329 329 329 328 328 328 329 329 329 329 329 330 330 329 330 330 329 328 328 327 326 325 323 317 312 317 322 321 321 323 323 324 324 324 325 324 322 315 308 307 307 305 303 301 301
325 323 323 323 323 322 322 322 322 322 321 322 323 325 325 325 326 326 325 325 327 327 326 327 327 327 327 327 328 327 328 328 329 329 328 329 328 328 328 329 329 329 328 328 327 327 328 329 329 329 329 329 330 329 329 330 329 329 328 328 327 325 326 323 314 313 319 321 321 322 322 323 325 324 324 324 322 318 310 307 307 305 302 301 301
324 323 323 323 323 323 322 323 322 321 322 323 324 325 324 325 326 325 323 324 324 325 326 327 327 326 327 327 327 327 327 327 328 328 328 328 328 328 328 328 329 329 328 328 328 327 328 329 328 328 328 328 329 329 330 330 329 329 329 328 328 326 326 326 319 312 315 320 321 321 322 322 324 324 324 324 323 320 314 308 307 306 302 301 301
324 324 324 324 324 323 323 323 322 322 323 324 324 324 325 325 326 325 325 325 325 323 324 325 326 325 326 327 327 327 327 327 328 328 328 328 328 328 328 328 328 328 327 327 327 327 328 329 328 328 327 328 328 329 329 330 330 329 329 328 328 327 325 326 323 314 313 319 321 321 321 321 323 324 324 324 324 323 319 312 307 305 303 300 301
323 324 324 324 323 323 323 323 323 323 324 324 324 324 325 325 325 326 326 326 327 325 322 323 324 324 323 324 325 326 327 328 328 328 328 328 328 328 329 329 329 329 328 328 328 328 328 329 328 328 327 326 327 328 329 330 330 330 329 328 327 327 326 326 325 318 313 316 320 320 321 321 322 323 324 324 324 323 323 318 310 305 303 301 300
322 323 324 323 323 323 323 324 323 323 323 324 324 324 325 325 325 325 325 326 327 325 323 322 323 323 323 323 323 324 325 326 326 327 327 328 328 328 328 329 329 329 329 329 329 329 329 329 329 328 325 323 324 327 329 329 330 330 329 328 328 328 327 326 326 323 316 314 318 320 320 321 321 322 323 324 324 323 323 322 316 309 304 302 301
321 322 323 323 323 323 323 323 323 323 323 324 324 324 324 325 325 325 324 324 325 325 325 324 324 325 325 324 323 323 323 325 325 325 326 328 328 328 328 328 328 329 329 330 330 330 329 329 329 327 323 323 325 327 329 329 330 330 329 329 328 328 327 326 326 325 321 316 316 319 320 320 321 321 322 323 324 323 323 323 321 314 306 302 301
321 321 321 321 322 322 322 323 323 323 323 323 323 324 324 324 324 324 325 325 325 325 325 324 325 326 327 326 324 322 322 324 325 324 325 327 327 327 328 329 328 329 329 329 329 329 328 328 328 326 324 325 326 326 328 328 329 330 329 329 328 328 327 327 326 325 324 320 316 317 320 321 320 321 322 322 323 324 323 322 322 319 312 304 301
320 320 321 321 321 322 322 322 323 323 323 322 322 322 322 322 323 324 324 324 324 325 325 325 325 326 326 327 326 325 324 325 326 325 326 326 325 324 324 326 327 328 329 329 328 327 326 327 328 327 325 325 326 327 327 328 329 329 329 329 329 328 327 327 326 325 325 324 319 316 318 320 321 321 321 322 322 322 323 322 321 322 318 308 302
320 320 321 321 321 321 321 321 322 322 322 321 321 321 321 322 322 323 323 323 324 324 324 324 325 326 326 326 327 327 326 326 326 326 325 325 325 324 323 322 323 326 327 325 324 322 322 323 325 326 326 326 327 328 328 328 329 329 329 329 328 328 327 326 326 326 325 325 322 317 316 318 321 322 321 321 322 322 322 321 320 321 320 312 304
320 320 321 321 321 320 320 321 321 320 320 320 319 319 321 321 321 321 322 323 323 323 322 323 324 325 325 326 326 327 326 327 327 326 325 324 323 325 324 322 323 325 325 322 320 320 320 320 322 324 325 326 327 327 327 328 329 328 328 328 328 328 327 327 327 326 325 325 323 321 317 316 318 320 320 321 321 321 321 321 319 319 320 317 309
319 320 320 320 320 319 319 319 319 318 318 317 316 317 318 319 319 319 319 320 321 320 320 320 321 322 323 324 325 326 326 327 327 326 326 325 324 324 324 323 323 325 324 324 323 322 321 321 320 321 323 326 326 326 326 327 327 328 328 328 328 328 328 327 326 326 326 325 324 323 321 318 317 317 318 319 320 320 320 320 318 317 320 320 312
319 320 319 319 318 318 318 317 317 316 316 315 315 315 316 317 316 316 316 317 318 318 318 319 320 320 321 322 323 324 325 325 326 326 326 326 326 325 325 324 323 324 325 326 325 324 322 322 321 320 322 325 326 325 326 326 326 327 328 328 328 327 328 327 327 326 326 325 324 324 323 322 321 319 319 319 319 318 318 318 316 316 319 320 313
318 319 319 318 317 317 317 316 316 316 316 315 315 315 316 316 316 315 315 315 316 316 317 318 320 319 320 320 322 322 322 323 324 324 325 326 326 325 325 325 324 325 325 325 325 325 324 324 323 323 324 326 325 325 326 326 326 327 327 327 327 327 327 327 327 326 325 325 325 324 324 323 322 322 321 321 320 319 319 318 317 317 320 321 316
318 318 318 317 317 317 317 316 316 316 316 315 315 315 315 315 315 314 314 315 315 316 317 318 319 319 320 320 320 320 320 321 321 322 323 324 325 325 325 325 325 325 325 325 325 325 324 324 324 325 325 325 325 326 326 326 327 326 326 326 327 326 326 326 327 326 326 326 325 324 324 323 322 323 323 323 322 321 321 320 319 319 320 320 319
317 316 316 316 316 317 316 316 316 316 315 315 315 316 315 315 316 316 315 315 315 316 317 318 318 319 319 319 318 318 318 318 319 319 320 321 322 323 325 325 325 325 325 325 325 324 324 324 324 325 325 325 325 326 326 326 326 326 326 326 326 326 326 326 327 326 326 326 325 324 323 322 323 323 322 323 323 321 321 320 320 320 320 320 320
315 315 315 315 315 315 315 315 315 315 314 314 314 315 315 315 316 316 315 315 315 315 316 316 317 318 318 317 317 317 316 316 317 317 317 318 319 320 322 323 325 325 325 325 324 324 324 323 324 324 324 325 325 325 326 326 326 326 327 327 326 326 326 326 326 326 326 326 325 324 323 323 324 323 321 323 323 321 320 319 319 320 320 320 320
314 314 314 314 314 314 314 314 314 314 313 313 314 314 314 314 315 315 315 315 315 315 314 314 316 317 316 316 316 316 316 316 316 316 316 316 316 317 318 320 321 322 323 324 323 323 323 323 323 323 323 324 324 324 325 325 325 326 326 326 326 326 326 326 326 327 326 325 324 324 323 323 323 322 321 322 323 322 320 319 320 320 319 319 320
313 313 313 313 313 313 313 313 313 312 312 312 312 312 312 313 313 313 314 314 315 314 314 314 314 315 315 315 315 315 315 315 315 315 315 315 315 315 316 316 317 318 319 320 321 321 322 322 322 322 322 322 323 323 323 323 323 324 324 325 326 325 326 326 325 325 324 324 324 324 323 323 322 321 321 322 322 321 320 319 320 319 318 318 318
313 313 313 313 312 312 312 312 312 311 311 310 311 311 311 311 311 312 312 312 313 313 313 313 313 313 313 313 313 313 314 314 314 315 314 315 314 314 314 315 315 315 316 317 317 318 319 320 320 321 321 321 321 322 322 322 322 323 323 324 324 325 325 325 323 323 323 323 322 320 320 322 321 320 321 322 322 321 320 320 320 318 318 318 318
312 312 312 311 311 311 310 310 310 310 309 309 309 309 309 310 310 310 310 311 311 311 311 311 311 310 310 310 310 311 312 312 313 314 314 314 315 314 315 314 314 314 315 315 315 315 316 317 317 318 318 319 319 320 321 321 322 322 322 322 323 324 325 324 323 322 322 322 320 315 316 320 320 319 320 321 320 319 319 319 318 317 318 319 317
311 310 310 309 308 308 308 308 308 307 306 306 306 307 307 308 308 309 309 309 309 309 309 309 308 308 308 309 309 309 310 310 311 312 312 313 315 315 314 314 314 315 314 314 314 315 315 315 315 315 315 316 316 316 318 319 320 321 321 321 321 322 323 323 322 320 318 319 318 314 314 318 319 319 319 319 319 319 319 318 317 316 319 319 315
308 307 306 306 305 304 304 303 303 302 301 301 301 302 303 304 305 306 306 307 307 306 306 306 305 305 305 306 306 307 308 308 308 309 310 312 313 314 313 312 313 313 313 313 313 313 313 313 313 312 312 312 312 312 313 314 315 317 319 319 319 320 321 322 321 317 315 318 319 315 313 316 317 317 317 318 319 319 319 319 317 317 317 315 310
305 304 303 302 301 300 299 299 298 298 298 298 298 298 298 299 300 301 302 302 303 303 303 302 302 302 302 302 302 303 304 305 306 307 308 309 310 311 311 311 311 311 311 311 312 311 311 311 311 311 311 311 311 311 311 311 312 313 314 315 317 319 320 320 320 318 317 319 320 317 314 314 314 315 315 317 318 318 318 318 317 316 314 310 308
302 300 299 299 298 297 297 297 296 296 296 296 296 296 296 296 297 297 298 298 298 299 299 300 300 300 300 300 300 300 301 301 302 304 305 306 307 308 308 309 309 309 308 309 309 309 309 309 309 309 309 309 310 310 310 310 310 310 310 311 313 316 318 319 318 319 319 319 319 318 316 314 314 313 314 315 316 316 316 316 316 315 313 312 312
Wind_Speed
7 7 8 9 10 10 10 9 9 9 8 8 9 9 9 10 12 14 14 15 14 15 18 21 20 18 16 14 14 14 14 14 14 13 12 12 11 10 9 10 10 12 13 12 12 11 10 11 10 10 9 9 8 6 5 4 4 3 3 4 6 6 4 5 5 4 5 5 4 2 2 3 3 4 4 4 4 5 7 9 8 8 11 14 13
8 9 10 10 12 13 13 13 12 11 11 10 10 11 11 11 12 13 15 16 16 15 18 21 22 20 17 16 16 16 17 16 16 15 15 14 13 12 10 10 10 11 12 12 12 11 10 11 11 9 8 9 8 5 3 4 5 4 5 6 7 8 6 6 6 5 6 6 4 3 3 3 3 4 4 4 4 5 8 10 10 10 12 14 14
9 10 10 11 12 13 14 15 14 14 14 13 13 13 14 14 13 13 15 17 18 18 19 22 23 23 22 20 19 19 20 19 17 16 16 16 15 13 11 11 11 11 12 11 11 10 10 10 10 9 8 8 7 4 4 5 6 7 8 10 10 9 8 6 6 6 6 5 5 5 5 4 4 5 5 4 5 6 8 10 10 11 12 12 13
9 10 11 11 12 13 13 14 14 14 15 15 16 16 16 17 16 15 16 17 18 20 21 23 24 25 26 25 23 23 23 21 19 17 17 17 16 14 12 12 13 12 12 11 10 9 10 10 10 9 8 9 7 4 5 7 8 9 10 11 11 9 8 6 5 6 6 5 5 5 6 5 5 6 5 5 5 6 8 9 10 10 11 10 11
9 10 10 11 11 11 12 12 13 14 15 15 16 17 18 18 17 17 18 18 18 19 21 23 25 26 27 28 27 25 25 24 22 19 18 17 17 16 14 14 14 13 12 12 10 9 10 10 9 9 8 9 7 4 6 8 10 11 10 10 9 8 7 6 6 6 6 6 5 5 5 5 6 7 7 6 6 6 7 8 9 10 10 10 9
9 9 10 11 11 12 12 12 12 14 15 16 16 17 18 18 18 19 19 19 19 19 20 22 24 26 27 28 28 27 27 26 25 23 20 18 18 17 16 16 16 15 13 13 11 9 10 10 9 9 9 9 8 5 7 9 9 9 9 9 8 7 6 6 6 6 6 5 4 5 5 6 8 8 8 7 6 7 7 8 9 9 10 10 10
9 9 10 11 12 13 12 12 13 14 15 15 16 16 17 18 19 19 19 18 19 19 20 21 22 24 26 27 27 27 27 27 27 25 21 19 19 20 19 17 16 16 15 13 12 11 10 10 9 10 9 9 9 6 7 9 8 8 8 8 7 7 6 6 5 6 6 5 5 6 6 8 10 10 9 9 8 8 8 8 9 9 9 9 9
9 10 11 11 12 12 11 12 13 14 14 14 14 14 15 17 18 18 18 18 18 20 20 21 22 24 25 26 27 27 27 28 29 26 23 22 22 22 21 19 17 17 16 14 14 12 11 10 10 10 10 10 10 7 6 8 8 7 7 7 7 7 7 6 6 6 5 5 6 7 9 11 12 11 10 10 9 9 9 9 9 9 9 9 9
9 10 10 10 11 11 11 11 12 13 14 14 13 13 13 15 16 16 17 17 18 19 20 21 22 24 25 26 27 28 28 28 29 28 25 25 26 24 23 21 19 19 18 16 15 14 12 11 11 10 10 10 9 7 7 7 7 7 7 7 7 7 7 6 6 6 6 7 8 10 12 13 12 12 11 10 10 10 10 10 9 9 9 9 9
9 9 10 10 10 11 11 12 13 13 13 14 13 13 13 13 14 15 16 17 18 19 19 20 22 23 24 26 28 30 30 29 30 30 28 26 26 26 24 22 20 20 19 18 17 16 14 12 12 11 10 10 9 8 7 7 7 7 6 7 7 7 7 6 6 7 8 10 10 11 12 12 12 12 11 11 10 10 10 9 9 8 8 8 8
9 9 10 11 12 12 12 12 13 14 14 14 14 14 14 13 14 15 16 17 18 19 19 19 20 22 22 23 25 27 27 27 28 30 30 27 24 25 25 23 22 22 21 19 18 18 16 13 13 12 11 10 9 8 7 7 7 6 6 7 7 8 7 7 7 8 11 11 10 10 11 11 11 12 12 11 10 9 9 9 8 8 8 7 7
11 12 12 13 13 13 14 14 15 15 16 16 16 16 16 15 15 16 17 18 18 19 18 18 19 20 21 20 21 22 23 24 25 27 28 26 24 23 25 24 23 24 22 20 20 19 17 15 14 12 11 11 9 8 7 6 6 6 7 7 8 9 8 8 9 9 11 10 10 10 11 11 11 12 12 10 9 9 9 10 9 9 9 9 8
11 12 13 13 14 15 16 16 17 18 18 18 17 17 17 18 18 18 19 19 20 19 18 18 19 20 21 20 20 20 20 21 23 24 23 22 21 22 24 25 25 24 23 22 22 21 19 16 15 14 13 12 11 10 8 7 7 7 7 7 8 9 9 10 11 10 10 10 11 10 12 12 12 12 11 10 10 9 9 10 10 10 10 10 9
13 14 14 15 15 16 17 18 19 20 20 20 19 19 18 18 19 20 21 21 22 21 19 18 19 20 21 21 22 21 21 21 22 23 22 21 20 21 22 24 24 22 21 24 25 23 21 19 16 15 14 13 13 11 10 9 8 8 8 8 8 9 9 11 12 10 9 12 11 11 13 12 12 11 10 10 10 10 9 10 11 11 10 10 10
16 16 16 17 17 18 18 19 20 20 21 21 21 20 20 20 20 21 22 23 24 23 22 20 19 19 18 20 21 21 21 22 22 22 22 22 23 23 22 22 22 21 21 26 28 25 22 20 18 17 16 15 14 13 12 10 9 9 9 8 9 10 11 12 14 11 11 13 13 13 13 11 11 11 9 10 9 10 10 10 11 11 10 10 10
18 19 19 19 19 19 19 19 19 19 20 20 21 21 21 21 20 20 20 22 24 24 23 22 20 18 15 17 19 18 19 21 21 21 21 22 25 26 25 23 22 21 23 26 27 26 24 22 20 18 17 16 15 14 13 12 11 11 11 10 9 11 13 13 15 13 13 14 14 14 12 11 11 10 10 10 8 9 11 11 11 11 11 11 10
20 20 21 20 20 20 19 18 18 18 19 20 21 21 21 22 22 21 20 21 22 23 23 23 24 21 18 18 16 15 18 19 20 20 20 21 23 24 25 26 24 24 24 25 25 26 26 23 22 20 19 18 17 16 15 13 13 13 12 11 10 11 13 15 15 14 14 15 15 14 12 12 12 11 12 10 8 9 11 11 11 12 11 11 10
20 20 20 21 20 20 20 20 20 20 21 22 22 22 23 23 23 23 22 22 22 22 24 25 25 25 24 23 21 20 21 21 18 18 18 19 20 21 24 26 27 26 26 26 26 27 27 26 25 23 21 19 18 18 17 15 14 14 13 12 11 11 13 17 17 16 15 13 14 15 13 13 13 13 13 11 8 10 13 12 12 12 11 11 10
19 19 20 21 21 21 21 22 23 24 25 26 26 25 24 23 22 22 23 23 23 22 24 25 25 27 27 25 25 26 25 25 23 21 18 19 20 20 21 23 26 28 29 29 29 29 29 29 27 25 23 21 20 19 19 17 16 15 14 13 12 11 14 20 20 19 17 13 13 15 14 14 14 13 13 12 9 10 13 14 13 12 11 11 11
19 20 20 21 21 21 22 23 24 26 27 28 28 27 26 24 23 22 22 22 23 22 23 23 24 27 28 27 28 28 27 28 28 25 22 21 21 21 21 21 24 27 30 31 30 30 30 30 29 27 25 23 21 21 20 19 18 17 16 15 14 12 15 22 23 22 20 15 13 15 14 14 14 14 13 12 10 9 13 15 13 11 11 12 11
18 19 20 20 20 21 22 23 25 26 27 28 28 28 27 26 25 24 22 21 21 22 23 24 23 23 26 27 28 28 27 28 27 25 25 25 24 25 26 25 25 26 28 30 30 30 30 31 30 29 27 25 23 22 22 21 20 19 17 16 15 13 17 23 25 24 23 19 16 16 15 14 14 14 13 12 10 10 12 15 14 11 11 12 12
18 19 19 19 20 21 22 23 25 25 26 26 27 27 26 26 25 23 21 20 21 22 23 25 24 23 24 24 26 27 27 29 28 26 25 25 26 29 30 28 28 28 27 28 29 30 30 31 31 31 30 27 25 24 23 23 22 20 19 17 16 15 17 23 25 26 24 21 19 19 17 15 15 15 14 12 11 11 13 15 14 12 12 12 12
18 18 18 18 19 20 22 23 23 24 24 25 26 26 25 24 23 21 19 19 21 23 23 23 23 24 24 23 24 26 27 30 30 27 26 26 28 30 31 30 30 30 28 26 27 29 30 31 33 34 32 29 27 25 25 24 24 22 20 19 18 17 18 23 26 26 26 23 21 20 18 17 16 16 16 13 11 12 14 15 14 13 13 13 13
17 16 16 17 18 19 20 21 22 23 24 25 26 25 23 21 20 19 18 18 19 21 22 21 20 21 23 24 25 26 28 30 28 26 27 28 29 32 34 32 31 31 31 29 27 27 30 33 35 35 34 32 29 27 26 26 25 23 22 21 20 18 19 23 26 27 27 25 23 22 20 19 18 17 17 14 11 12 14 14 14 13 13 14 14
15 15 16 17 18 19 20 21 21 22 23 24 24 23 21 20 19 19 18 17 17 18 18 19 19 20 22 22 23 24 26 28 27 26 27 29 32 35 35 32 31 32 32 30 28 27 29 33 34 34 35 35 32 29 27 27 27 26 24 23 22 20 20 23 26 27 28 27 25 24 22 20 19 19 18 15 13 13 14 14 13 12 13 13 14
15 16 17 17 17 18 19 20 20 21 22 22 22 22 21 20 18 18 18 17 17 17 17 17 17 19 20 20 21 21 22 23 23 23 23 26 30 33 32 31 31 31 30 28 27 28 29 30 32 34 34 35 33 31 29 28 28 27 26 25 25 23 21 22 25 27 28 27 26 25 24 21 20 20 19 17 14 14 15 14 13 12 13 14 14
15 16 16 17 17 18 18 18 19 19 20 20 21 21 22 21 19 17 18 18 16 16 16 16 17 17 18 19 20 21 21 20 20 20 21 23 27 28 30 32 29 25 26 27 27 27 28 27 29 31 33 34 34 32 30 29 30 29 28 27 27 26 23 22 25 28 28 28 27 27 26 23 21 21 20 19 17 16 16 15 13 13 14 14 14
15 15 15 16 16 17 17 17 18 18 18 19 19 20 20 20 19 17 17 18 17 15 15 15 16 17 18 19 20 20 20 20 20 20 21 22 25 27 30 32 29 24 24 26 28 28 27 27 27 29 31 34 35 34 32 31 30 31 30 30 29 29 26 24 25 27 29 29 28 28 27 25 22 22 22 22 20 18 17 16 14 14 14 14 15
14 15 14 14 15 16 17 16 17 18 18 18 18 18 19 18 17 16 17 17 17 17 16 15 15 17 18 17 17 19 20 20 19 19 20 20 23 27 30 31 30 27 25 25 28 29 28 28 28 27 29 32 34 35 34 32 31 32 33 33 32 30 28 27 25 27 29 30 29 29 29 27 24 23 23 23 22 20 19 18 16 15 15 15 16
13 13 13 14 15 16 16 16 17 18 17 17 17 18 18 18 17 16 17 18 17 17 16 16 16 16 17 15 13 14 15 17 17 17 19 19 20 24 27 28 29 30 29 27 27 29 29 29 29 27 26 27 30 32 34 34 32 33 35 35 33 31 29 28 27 27 29 31 30 30 29 28 26 24 23 24 24 22 20 19 17 16 16 17 17
12 12 13 14 15 15 16 16 17 17 17 17 17 17 17 17 18 17 17 18 17 16 16 16 16 16 16 15 13 12 12 12 14 15 16 17 17 21 25 27 28 29 30 31 30 30 30 29 29 26 24 23 24 27 31 33 33 34 36 36 34 32 30 29 29 28 28 30 31 30 30 29 28 26 24 24 24 23 21 20 19 17 17 18 18
11 11 13 14 14 15 16 16 17 17 18 18 17 16 16 17 18 17 17 17 17 16 16 16 17 17 17 16 14 14 14 14 15 15 16 17 17 20 23 28 31 30 29 30 32 32 30 30 29 26 24 23 22 24 28 31 33 34 36 36 35 34 32 31 30 29 29 30 30 30 30 30 29 27 25 22 21 22 21 19 20 19 18 19 19
10 11 12 13 14 15 16 17 19 19 18 18 17 17 17 17 17 17 16 17 16 16 15 16 17 19 18 16 15 14 14 15 16 15 15 17 18 21 23 25 28 29 28 28 30 30 30 29 27 25 24 23 23 24 26 29 32 34 35 36 35 35 34 33 33 32 30 30 30 30 31 31 30 28 27 24 20 18 18 17 19 21 20 19 19
10 11 12 13 14 15 16 18 19 19 19 18 18 18 18 18 18 18 18 17 17 16 16 17 18 19 19 17 16 16 15 16 16 14 12 12 12 15 20 22 22 23 25 25 25 28 29 26 23 21 21 22 23 24 25 26 29 32 34 36 35 35 35 35 35 34 32 31 31 31 31 31 31 29 28 26 23 20 18 17 17 21 22 20 19
11 12 13 15 15 15 15 17 18 18 19 18 19 19 19 19 20 19 19 18 18 17 17 18 18 18 18 18 18 17 16 17 17 13 11 10 9 8 10 14 16 18 22 21 20 22 24 22 20 19 20 22 23 24 24 24 25 28 32 36 36 35 36 37 37 35 33 32 31 32 32 32 31 30 29 27 25 23 22 19 17 19 23 23 20
12 12 13 14 14 15 15 16 17 17 18 18 19 19 19 19 20 20 20 19 19 19 19 19 19 19 19 19 18 17 15 16 16 13 10 11 11 10 9 9 10 13 16 15 13 16 19 20 18 17 22 25 25 24 24 24 25 27 31 34 36 36 37 38 37 34 33 32 31 31 32 32 32 31 29 28 26 25 23 21 18 18 23 25 22
13 13 13 13 13 14 15 16 16 16 17 19 20 20 20 21 21 20 21 21 21 21 20 20 20 20 20 19 18 18 16 16 16 14 12 11 11 11 9 7 7 8 11 12 13 16 19 20 17 15 19 24 26 25 23 24 26 28 29 31 34 36 37 37 36 34 33 33 32 31 31 32 32 31 30 29 27 26 24 23 21 20 22 25 24
13 12 12 13 13 13 14 14 15 15 17 18 20 21 22 21 21 21 22 22 22 22 22 22 21 21 21 21 20 20 19 18 17 16 14 12 10 9 8 7 7 8 11 13 14 14 16 17 16 17 18 19 20 22 21 22 26 28 28 28 30 33 36 37 35 35 34 33 31 31 31 32 31 31 30 29 28 27 25 24 24 22 21 24 25
11 12 12 12 12 12 12 13 13 14 14 15 18 20 20 20 20 20 21 21 21 21 22 22 22 22 22 23 23 23 23 22 20 18 16 14 12 10 9 8 9 10 11 11 10 12 14 15 16 19 21 19 17 18 19 19 21 24 25 27 29 32 35 36 35 35 35 33 32 32 32 31 31 30 30 29 28 27 26 25 25 23 22 23 25
11 11 11 11 11 11 12 12 11 11 12 13 16 19 20 20 20 20 20 19 18 19 21 22 22 23 23 23 24 24 24 24 24 22 19 17 15 14 11 9 8 9 10 11 10 9 11 14 16 19 20 18 15 15 17 17 18 20 23 26 29 32 34 34 34 34 35 34 34 34 33 32 31 30 29 28 28 28 28 27 26 24 24 25 25
11 11 10 10 10 10 10 10 10 10 11 13 17 18 19 19 20 21 20 19 18 18 19 21 23 23 23 24 25 25 25 25 24 24 23 21 18 16 15 13 11 10 9 10 11 11 11 12 16 18 18 16 15 15 16 17 18 19 22 24 26 29 31 31 32 33 34 35 36 35 34 33 32 30 28 27 27 28 28 27 27 26 26 26 25
11 11 10 10 10 11 11 11 11 11 14 17 19 19 19 19 20 20 20 20 20 19 20 21 23 24 24 25 25 26 27 27 26 26 26 26 25 22 20 18 16 14 12 11 10 10 11 12 14 15 16 15 16 16 17 17 18 19 22 23 24 26 28 29 32 33 33 34 35 34 33 32 31 30 29 28 28 27 27 27 27 27 27 27 26
11 11 11 11 12 13 14 14 15 16 19 20 20 20 20 20 20 20 20 21 21 21 22 23 24 24 24 25 26 27 28 29 29 28 28 29 29 28 25 22 19 18 16 14 12 11 10 11 12 14 14 15 16 17 18 18 18 19 21 22 24 27 29 30 32 33 34 35 34 33 34 34 33 31 29 29 30 29 27 27 26 27 28 27 26
10 10 11 12 13 14 15 15 17 19 21 20 20 20 20 20 19 19 19 19 19 20 21 22 22 22 23 24 24 25 27 27 28 29 28 28 28 28 27 26 24 22 20 17 15 14 12 11 11 12 13 13 14 16 18 19 18 19 21 23 24 26 28 30 33 34 35 34 33 32 33 33 33 30 29 32 33 31 28 26 26 27 27 27 27
9 9 11 12 13 13 14 15 16 18 19 20 19 19 19 19 19 18 18 18 18 18 19 19 19 19 21 22 22 23 24 24 26 27 26 25 25 25 25 25 25 24 22 20 18 16 14 13 12 12 12 13 14 15 16 17 19 20 22 24 26 27 29 32 35 35 34 34 33 32 31 31 32 31 31 32 32 30 28 27 28 27 25 27 29
9 10 11 12 12 13 14 15 15 17 19 20 19 19 19 19 19 19 19 18 19 19 19 20 20 20 21 22 23 24 24 24 25 26 25 24 23 23 23 23 24 23 23 23 23 23 22 19 17 15 15 15 16 17 16 16 17 18 20 23 24 25 28 30 30 30 31 32 32 31 30 31 33 32 32 32 30 29 28 28 28 26 26 29 30
10 11 12 12 13 14 15 15 15 17 19 19 19 19 19 19 19 19 20 20 20 21 21 21 22 22 23 23 25 26 26 26 26 25 23 22 21 21 23 23 23 23 24 25 26 26 27 26 25 22 20 18 17 17 17 17 17 16 16 19 23 26 29 29 28 28 28 28 28 28 30 33 33 32 34 34 31 29 29 29 28 28 30 31 28
11 11 12 13 14 15 15 15 16 18 20 19 19 19 19 18 18 19 19 20 20 21 22 23 23 23 23 24 24 24 24 26 26 25 24 21 18 19 21 22 23 23 24 25 24 24 24 25 25 25 24 22 20 18 18 17 17 17 15 16 21 26 29 30 28 25 24 25 26 27 28 32 34 34 34 32 30 29 29 29 28 29 30 29 27
11 12 13 15 16 17 17 18 19 20 22 22 21 21 20 20 19 20 20 20 21 22 23 24 24 25 26 26 25 23 23 23 24 23 23 21 19 19 20 21 20 21 22 22 21 21 22 21 21 22 22 22 22 23 23 23 21 16 12 12 17 22 24 22 21 21 22 24 26 26 26 28 32 33 32 31 30 30 30 30 29 30 30 28 26
13 15 15 17 18 19 19 20 20 21 21 22 21 21 22 22 22 22 22 22 23 24 25 25 26 27 28 29 28 27 26 25 23 22 22 21 20 20 21 21 20 21 23 22 20 20 20 20 21 22 22 23 24 25 26 27 26 23 19 12 9 17 19 18 17 18 21 25 26 25 26 26 28 30 32 31 29 28 28 29 28 27 27 25 23
15 16 16 17 18 19 19 19 19 19 20 21 21 21 21 21 22 22 22 23 25 25 25 26 27 28 29 30 30 30 29 27 26 24 23 23 22 21 21 21 22 23 24 23 22 23 23 23 23 23 23 23 24 24 25 26 25 25 26 24 14 5 11 16 18 18 19 23 25 25 27 28 28 29 31 31 27 25 24 25 25 24 23 24 25
Wind_Direction
292 292 293 295 301 302 300 298 297 299 296 295 289 287 282 266 255 247 245 243 241 238 229 225 228 235 241 246 252 257 263 272 279 282 282 284 290 295 295 301 310 320 329 330 328 326 319 317 320 319 318 317 312 304 293 280 284 265 221 225 223 220 219 218 224 231 230 228 225 217 220 219 171 146 147 132 130 126 125 133 132 122 119 115 110
292 292 294 297 302 303 302 300 298 299 297 295 289 284 282 274 263 253 247 244 242 240 232 225 224 230 238 246 252 255 260 265 271 274 275 277 280 285 284 288 297 308 318 322 322 322 317 316 315 316 320 321 321 312 280 260 270 245 218 233 235 231 237 238 236 239 238 230 224 223 226 215 166 154 157 140 133 128 127 128 123 121 126 122 113
288 290 292 295 298 299 301 301 301 302 300 297 291 284 277 271 268 262 254 247 243 240 236 231 230 234 239 247 254 256 257 261 265 267 270 272 273 278 276 279 287 295 306 313 314 313 310 311 312 315 319 317 316 301 248 236 257 251 237 245 249 245 246 249 246 241 235 223 221 224 222 207 166 161 164 149 133 125 129 129 121 120 127 128 125
288 291 291 291 293 296 301 304 304 303 300 296 293 288 281 275 272 270 266 256 248 244 242 241 240 241 242 247 254 257 256 258 262 264 268 272 272 274 271 272 278 284 295 304 305 301 301 306 308 313 314 310 310 286 242 231 241 251 251 250 250 248 246 247 248 240 224 215 220 219 216 200 167 162 160 149 139 129 130 129 123 121 123 127 132
296 297 295 294 296 298 301 302 301 297 293 292 290 289 284 281 279 275 272 266 259 251 249 249 248 248 248 250 254 255 255 258 261 260 263 269 270 271 268 267 272 276 285 295 296 287 289 297 303 310 308 303 303 267 246 246 243 246 249 250 248 244 240 241 241 229 215 214 218 207 203 187 158 156 153 150 147 136 131 128 124 122 122 123 130
300 299 299 301 301 299 299 297 295 292 290 291 289 287 284 282 280 276 273 269 265 259 257 257 256 256 256 256 257 254 254 258 262 262 263 266 265 262 257 257 265 272 278 286 289 277 274 281 292 302 300 299 296 255 246 259 255 246 243 243 244 236 229 234 229 215 209 208 200 188 187 168 149 147 148 150 147 136 129 125 125 124 123 124 128
297 299 299 301 300 297 298 296 296 293 293 293 289 288 286 283 281 278 276 270 267 265 262 262 261 262 260 259 260 257 254 256 261 265 268 270 270 266 255 250 258 267 272 279 283 276 265 264 275 291 294 296 293 265 254 267 264 251 241 234 235 229 224 228 220 203 199 195 186 181 169 150 143 143 144 143 138 133 128 124 124 125 124 126 129
294 298 300 302 300 299 299 297 297 297 297 296 292 289 286 284 283 282 281 276 272 269 266 264 262 262 261 259 259 260 259 258 261 265 268 269 273 270 257 251 255 260 266 273 277 272 262 255 261 277 286 289 290 277 261 268 267 253 237 226 224 221 225 228 208 190 186 180 174 165 150 141 140 141 142 141 138 134 131 128 125 124 124 125 128
301 305 309 309 307 304 301 297 295 296 298 297 295 293 289 287 284 282 280 278 276 273 272 270 267 265 264 262 261 262 263 262 264 265 265 264 266 266 256 251 253 253 259 267 270 267 259 251 253 264 276 282 287 285 265 257 256 244 232 228 219 214 225 219 190 182 175 160 154 152 146 143 142 142 143 143 140 137 132 130 128 126 126 125 126
313 314 317 318 315 312 305 300 296 295 297 298 298 297 293 291 286 283 279 278 278 277 277 276 275 273 271 267 264 264 264 265 266 266 265 261 260 260 255 251 250 249 254 261 261 261 257 250 248 253 266 275 278 280 273 257 248 238 230 227 215 214 218 198 187 189 168 153 151 153 151 149 147 146 147 145 141 138 133 128 125 124 124 124 124
313 312 315 316 314 313 308 303 300 299 300 299 299 298 294 290 286 286 283 282 283 282 281 280 279 277 274 271 267 265 265 265 267 266 265 262 256 254 252 249 247 245 249 254 253 255 255 246 243 247 257 265 265 268 272 266 253 235 226 219 206 213 205 181 190 182 158 153 161 162 156 152 151 148 147 144 140 136 129 121 115 112 111 111 111
310 310 312 312 311 310 308 305 303 304 305 305 304 301 298 294 289 286 285 285 284 284 286 285 283 279 276 273 270 268 267 267 267 264 262 260 254 249 249 247 243 242 245 248 248 250 251 243 240 241 247 255 255 257 263 266 258 239 229 215 204 212 195 176 184 169 152 160 174 171 161 154 150 146 143 139 134 128 124 122 121 119 117 113 111
315 314 314 315 316 317 315 312 310 309 308 307 306 304 302 299 296 293 289 288 287 286 287 288 289 288 285 282 279 275 272 270 268 264 261 259 253 248 248 246 244 242 242 244 243 246 247 241 237 236 239 247 247 249 253 257 258 248 236 220 209 207 191 180 179 166 160 173 184 176 161 154 149 145 141 137 136 134 130 131 132 132 128 124 124
322 322 322 323 324 324 322 319 316 313 310 308 307 305 301 299 296 295 293 291 290 288 289 289 289 290 292 291 287 284 279 272 267 263 259 257 254 251 248 246 246 242 239 239 239 240 243 240 235 233 234 240 242 242 246 250 253 250 244 234 216 200 188 185 177 171 180 185 188 177 161 158 153 148 145 143 144 146 142 141 141 139 136 136 141
322 324 325 326 324 323 321 319 316 313 310 309 307 306 303 300 295 292 290 289 289 290 291 290 289 289 288 281 278 280 280 274 267 261 258 256 254 253 250 246 244 239 237 240 237 234 238 238 234 231 232 236 240 240 241 244 247 247 244 238 220 199 193 190 174 173 195 194 188 177 165 162 156 150 152 153 152 151 150 149 148 148 151 158 163
322 323 323 323 322 321 320 317 315 311 309 308 307 306 304 302 297 291 287 284 284 286 287 287 287 284 275 268 268 268 267 270 271 268 263 259 257 255 252 246 241 236 238 244 241 235 234 236 236 233 231 234 238 240 239 238 241 244 241 234 220 202 193 181 165 174 203 203 191 179 168 164 165 165 166 166 164 160 158 157 158 160 167 177 177
319 319 319 320 320 321 320 318 316 312 309 306 304 304 302 300 298 294 289 285 283 283 282 281 281 276 266 262 261 256 259 267 273 274 269 262 261 259 253 248 243 239 240 245 244 239 235 235 236 234 231 232 235 239 237 232 236 241 240 234 218 204 191 171 160 179 207 211 195 180 171 172 177 180 178 178 179 173 168 165 168 171 172 176 175
317 317 317 318 318 319 319 318 317 314 312 309 307 306 303 300 297 293 290 285 284 284 280 278 279 277 270 264 260 257 264 268 265 268 271 266 263 259 254 250 246 243 241 243 243 240 238 236 235 234 232 231 233 237 235 230 232 236 239 235 219 208 191 169 167 186 206 215 196 179 177 182 185 187 186 188 184 178 176 174 177 178 173 171 171
316 317 316 314 315 316 317 315 315 315 315 313 312 310 307 304 300 294 289 284 281 282 283 282 280 278 273 271 271 267 266 267 262 260 265 266 263 257 254 251 247 244 242 243 243 239 238 236 233 233 232 231 232 234 234 229 229 233 236 233 222 211 188 172 173 187 199 209 197 184 185 189 189 192 195 195 190 184 184 184 185 180 171 168 171
315 314 313 312 312 313 313 313 314 315 314 312 311 311 310 308 305 301 295 288 279 276 283 285 280 278 276 274 274 272 270 270 268 262 256 259 261 257 256 256 249 245 241 242 243 239 237 236 233 232 231 231 230 231 232 230 227 228 232 230 223 211 189 179 178 185 193 199 197 192 192 192 193 197 201 203 202 197 194 194 193 183 171 170 174
316 314 312 311 312 312 313 314 315 314 313 312 312 313 312 310 308 307 303 295 284 274 273 276 276 278 278 276 276 276 275 276 274 266 255 252 257 258 260 258 251 247 243 240 242 240 238 236 234 232 231 230 229 228 229 230 227 224 227 228 223 211 193 186 183 186 191 192 193 196 196 197 198 200 205 208 213 214 205 200 198 189 178 175 177
319 316 312 311 312 313 314 315 315 315 315 317 318 318 316 312 309 309 307 303 298 288 276 272 272 273 275 278 280 275 273 274 272 269 264 257 257 260 260 256 251 252 249 243 241 241 238 235 233 231 230 229 228 226 226 228 227 223 223 226 223 211 198 192 190 189 191 191 192 196 198 200 200 203 208 212 220 222 210 202 198 194 186 181 181
319 315 311 310 311 313 314 315 316 318 321 324 325 323 320 315 312 312 310 307 304 298 288 280 273 272 274 275 276 271 270 272 268 265 267 264 260 259 258 257 255 255 253 249 246 243 239 234 231 230 228 227 226 225 225 227 228 223 221 224 222 213 202 197 196 193 192 192 193 195 200 203 200 202 209 213 220 220 209 201 200 197 193 186 185
317 314 312 312 314 315 316 319 322 324 328 329 330 329 326 320 316 314 311 309 307 301 295 290 280 274 274 272 269 266 266 271 271 266 265 267 265 262 260 258 255 253 253 251 248 246 242 235 231 229 227 226 224 223 224 225 227 224 220 222 221 214 206 201 200 198 195 194 194 194 199 206 203 201 208 212 216 215 206 202 203 202 198 192 188
320 318 319 319 319 320 322 325 327 330 334 336 339 340 338 331 324 320 314 308 308 306 299 296 289 279 276 276 273 269 266 267 271 268 264 268 267 263 263 260 254 254 253 250 248 247 245 240 235 230 228 226 223 222 223 224 226 225 220 220 220 215 209 205 204 203 199 196 196 196 200 206 205 201 207 213 212 211 207 206 208 206 203 198 192
324 323 323 324 324 326 328 329 331 335 338 342 346 349 347 343 336 332 330 320 309 304 301 299 295 287 284 285 283 279 274 271 271 268 264 264 262 262 264 259 252 252 250 248 249 247 245 243 239 233 230 228 226 223 223 223 225 226 222 220 219 216 212 208 206 206 204 200 198 199 201 205 206 202 204 211 211 209 210 210 210 208 206 202 197
323 324 324 326 328 330 330 332 336 340 342 345 348 350 352 352 349 346 346 340 323 308 304 302 301 297 294 293 290 286 284 281 280 277 272 267 265 267 264 252 242 240 242 244 247 247 246 246 243 238 232 229 228 226 225 223 224 225 224 221 219 217 214 211 208 207 208 205 201 201 204 205 205 203 204 210 213 211 210 211 210 208 207 204 201
320 322 326 330 332 333 334 339 343 345 347 348 350 352 354 356 356 355 355 353 346 336 325 316 311 308 303 295 289 286 283 282 282 283 283 278 272 269 262 249 238 232 233 239 243 246 246 245 244 241 235 230 229 228 227 225 222 222 224 222 219 216 215 213 211 208 209 209 205 204 207 206 205 205 207 211 214 213 209 208 208 206 206 205 204
317 323 331 334 337 338 339 346 351 352 352 353 355 357 355 356 358 357 356 358 359 357 353 343 333 328 323 312 299 292 287 285 285 285 286 283 275 269 262 253 246 238 232 234 240 243 244 243 243 239 234 231 230 229 228 226 222 220 222 222 219 216 215 214 213 210 209 210 209 208 209 208 207 206 208 213 218 217 210 205 206 205 202 204 206
318 327 334 337 342 344 346 354 358 358 359 360 2 2 360 359 0 359 356 355 355 358 0 356 348 344 344 342 330 314 302 293 291 288 287 287 282 274 266 256 249 242 237 236 241 246 246 245 243 237 232 232 232 230 228 227 224 221 221 222 219 217 216 215 215 212 209 209 210 211 211 210 209 207 210 217 220 220 215 206 205 207 203 204 209
325 331 336 342 349 352 355 2 5 6 8 8 9 10 9 7 6 5 3 0 358 358 0 358 352 349 350 355 354 342 330 317 309 304 299 295 285 274 268 261 252 243 239 238 242 247 249 247 243 235 228 230 235 235 232 230 227 223 221 221 219 217 217 216 216 214 211 209 210 212 212 212 212 209 212 219 218 220 223 213 207 209 205 205 210
335 338 345 353 0 5 10 15 16 15 15 13 13 14 14 12 10 10 9 8 7 3 0 357 352 349 346 350 355 351 346 341 336 328 316 309 295 275 266 261 254 246 240 239 242 246 249 250 244 230 222 229 238 240 238 235 233 227 223 221 218 216 216 216 217 215 212 210 209 211 212 213 215 214 214 219 219 220 226 221 213 212 209 209 211
348 351 360 9 16 22 26 25 23 20 18 16 16 16 16 12 9 9 11 12 10 6 3 0 357 354 349 345 348 350 346 341 341 339 329 320 305 285 271 261 254 249 244 242 244 247 250 248 236 221 221 231 239 242 240 238 237 232 225 222 220 217 215 215 216 215 213 210 209 210 211 212 215 216 215 218 219 217 220 220 215 213 213 214 212
10 11 18 23 28 32 31 27 24 23 21 21 20 19 17 12 8 9 12 11 8 4 3 2 0 2 359 351 347 348 345 339 336 336 337 333 317 297 281 265 253 250 248 247 249 252 250 240 224 218 226 235 240 243 242 240 239 236 229 223 220 218 217 216 216 214 212 211 209 210 212 212 214 216 216 217 216 215 219 222 216 213 215 216 214
27 26 30 32 33 33 31 29 28 27 26 25 24 21 18 15 14 15 16 14 10 5 3 2 2 2 3 1 357 354 350 346 341 338 341 342 338 331 306 281 270 262 256 254 255 257 256 248 236 228 232 243 247 245 244 245 243 237 232 227 222 218 217 217 216 214 212 211 210 210 212 213 213 215 217 218 216 216 220 222 220 218 217 216 214
38 36 36 38 38 35 34 34 31 30 31 30 28 24 20 18 17 18 19 18 18 15 12 8 6 4 4 5 5 1 355 352 351 348 346 342 338 342 333 317 310 284 263 256 257 263 269 273 269 250 238 245 251 244 241 245 243 238 235 230 224 219 218 218 217 215 214 213 211 211 213 214 215 215 217 218 218 218 219 221 223 222 216 216 216
45 41 38 42 42 37 37 38 38 39 39 36 32 30 28 26 25 24 24 26 28 28 24 18 14 10 9 9 8 4 358 355 355 352 345 335 332 338 334 326 322 292 270 269 271 272 272 273 278 270 254 252 253 246 240 240 240 237 233 230 225 220 219 220 218 215 215 215 212 211 213 214 216 217 218 219 219 220 221 221 223 222 216 217 218
45 40 39 43 44 43 45 45 45 44 43 39 34 32 32 31 32 31 30 31 33 32 30 27 23 19 15 13 12 10 6 2 358 357 355 348 334 331 327 318 312 298 283 275 266 260 260 260 259 261 270 273 262 249 243 240 239 235 230 228 226 222 221 221 219 216 215 214 212 212 214 215 216 218 219 220 221 221 222 222 222 220 217 219 219
43 41 42 43 43 44 44 42 40 40 40 39 36 32 29 27 26 26 26 28 30 30 30 29 27 26 23 19 18 17 15 11 5 358 357 357 352 343 328 310 306 307 304 296 270 238 236 248 249 251 265 275 264 251 247 242 239 236 231 228 225 223 222 220 219 216 214 213 212 213 215 216 217 219 221 222 222 222 222 221 219 217 215 217 217
46 44 41 39 35 32 30 26 27 29 29 33 34 31 27 23 20 18 18 19 21 24 27 30 30 30 29 27 27 26 24 21 18 11 5 360 356 352 343 329 317 312 310 312 306 275 247 244 246 252 262 266 259 253 250 242 238 237 232 229 229 227 222 219 219 217 214 212 211 212 214 214 216 220 222 222 223 222 221 218 215 216 215 214 214
46 41 36 31 25 22 21 17 19 21 23 29 32 28 24 22 19 15 16 19 21 24 28 32 33 32 33 36 37 37 34 31 28 25 21 15 7 359 354 350 345 333 319 312 313 309 293 272 262 264 270 270 263 259 256 251 247 242 235 231 232 231 226 221 218 216 215 213 211 212 214 213 213 217 219 221 223 224 223 216 212 214 215 213 213
46 42 36 30 26 24 23 22 23 26 31 35 33 27 25 25 23 22 23 23 25 28 30 33 35 36 40 44 45 45 43 39 35 34 32 28 23 17 11 6 0 353 343 332 322 314 310 303 292 283 279 279 278 276 272 264 256 248 240 233 229 228 227 223 218 215 214 213 212 214 213 211 211 213 214 217 219 223 224 216 210 212 213 213 214
49 46 41 37 35 34 32 32 33 37 40 39 33 29 28 27 25 25 25 24 25 28 31 34 37 40 42 42 42 44 43 40 36 35 35 34 31 27 24 21 16 8 360 351 343 335 328 327 320 307 298 295 294 291 286 277 264 252 247 242 234 227 223 219 215 212 210 209 211 214 213 211 212 212 212 214 216 222 225 217 211 212 210 213 217
53 49 47 45 45 44 43 41 42 46 46 41 35 31 29 27 25 25 25 24 25 28 32 36 37 37 35 33 33 36 38 37 34 32 32 35 36 34 32 31 29 24 16 6 359 355 348 342 336 323 314 311 306 300 297 296 287 272 260 251 242 235 230 223 216 210 206 205 208 212 213 211 209 209 212 212 214 221 223 215 214 214 208 211 218
58 55 55 53 52 52 50 48 49 52 49 41 34 29 27 26 25 25 28 29 30 32 35 37 34 30 26 24 26 29 30 31 31 29 27 29 32 34 35 35 35 34 31 25 19 17 10 360 354 348 340 332 324 315 309 305 298 287 273 257 243 236 231 223 216 212 208 204 205 208 209 208 207 210 212 209 211 218 217 212 214 213 205 209 215
65 62 60 57 55 52 50 49 49 50 48 42 34 28 26 25 24 25 29 32 35 36 36 35 33 31 27 25 26 27 26 26 25 23 21 21 22 25 29 33 34 35 37 36 33 29 25 20 14 7 357 346 336 330 324 317 306 296 284 270 256 246 237 226 217 216 213 207 205 205 204 206 209 209 209 211 215 216 213 213 215 209 204 209 212
67 63 60 56 54 52 51 48 47 49 49 43 36 31 28 26 26 26 28 31 33 35 35 33 32 33 32 30 27 26 25 24 20 15 15 16 17 21 27 29 29 31 36 38 35 30 27 25 22 18 10 359 347 335 328 322 313 304 292 278 267 257 244 227 213 212 214 210 209 209 204 205 208 208 209 215 217 213 212 217 213 205 206 209 210
66 63 61 59 58 57 56 53 53 55 54 48 42 38 34 30 29 28 29 32 34 36 37 35 34 34 33 31 29 26 24 24 21 17 15 14 16 25 31 32 32 35 38 39 38 34 31 28 25 22 19 14 9 358 348 338 323 307 292 277 265 250 232 213 202 205 212 211 212 216 212 207 208 210 211 212 211 209 212 214 208 204 210 213 214
71 68 67 68 67 66 66 64 63 63 61 56 52 49 45 42 40 38 37 38 41 43 43 42 41 40 38 35 32 29 26 24 22 21 19 16 17 24 28 30 34 38 39 37 35 35 32 27 22 18 15 14 13 8 4 0 352 335 308 280 263 247 230 214 202 205 217 219 216 217 217 213 210 209 207 205 206 207 208 208 206 209 214 216 217
78 77 76 76 74 71 69 67 65 64 62 59 54 52 50 48 47 47 46 46 47 48 48 47 46 44 43 41 38 35 32 28 24 22 22 21 23 25 25 24 28 33 32 27 23 21 16 11 11 11 10 10 8 4 1 360 360 1 359 343 272 238 233 232 222 215 219 224 223 217 215 216 214 209 204 203 204 206 209 210 212 216 218 214 211
83 83 80 77 75 71 68 65 63 60 58 56 51 48 48 46 46 47 47 47 47 47 47 46 46 45 44 43 41 39 36 33 29 26 24 23 25 27 27 25 27 29 24 15 11 9 4 3 6 7 8 10 6 359 355 353 353 359 5 6 358 287 235 230 231 231 226 222 222 222 218 218 219 215 210 207 202 199 205 210 210 211 210 206 201